Back to catalog

SL-14 DEB

AlivePO
NORAD 21913·DEBRIS·🇷🇺 Russia

Launched Oct 26, 1978 from Plesetsk Cosmodrome

Loading…

Next Passes (next 24 hours)

TLE

FreshSource: Space-Track

Epoch: Sep 14, 2026, 03:40 UTC

1 21913U 78100AR  26257.15288006  .00000445  00000-0  53996-2 0  9991
2 21913  82.5474 323.3211 0028221  60.7635 326.4535 12.00071036518939

Track SL-14 DEB in real time with AllMySat

Download on the App Store